Temperature
15 15 15 15 15 15 15 15 15 15 15 16 16 16 16 15 15 15 15 16 16 16 16 16 16 16 16 16 16 17 17 17 17 17 17 17 17 17 17 17 17 17 17
15 15 15 15 15 15 15 15 15 15 15 15 15 15 15 15 15 15 15 15 16 16 16 16 16 16 16 16 16 16 16 17 17 17 17 17 17 17 17 17 17 17 17
15 15 15 15 15 15 15 15 15 15 15 15 15 15 15 15 15 15 15 15 15 15 16 16 16 16 16 16 16 16 16 16 16 16 17 17 17 17 17 17 17 17 17
15 15 15 15 15 15 15 15 15 15 15 15 15 15 15 15 15 15 15 15 15 15 15 15 15 15 15 16 16 16 16 16 16 16 16 16 16 17 16 17 17 17 17
15 15 15 15 15 15 15 15 15 15 15 15 15 15 15 15 14 15 15 15 14 15 15 15 15 15 15 15 15 16 16 16 16 16 16 16 16 16 16 16 16 16 16
15 15 15 15 15 15 15 15 15 15 15 15 15 15 15 14 14 14 14 14 14 14 14 15 15 15 15 15 15 15 15 16 16 16 16 16 16 16 16 16 16 16 16
14 14 15 15 15 15 15 15 15 15 15 15 15 15 15 15 14 14 14 14 14 14 14 14 14 14 14 15 15 15 15 15 15 15 15 16 16 16 16 16 16 16 16
14 14 14 14 15 15 15 15 15 14 14 15 15 16 16 15 14 14 14 14 14 14 14 14 14 14 14 14 14 15 15 15 15 15 15 15 15 15 15 15 16 16 16
14 14 14 14 14 14 14 14 14 14 14 14 15 15 16 16 15 14 14 14 14 14 14 14 14 14 14 14 14 14 14 15 15 15 15 15 15 15 15 15 15 15 15
14 14 14 14 14 14 14 14 14 14 14 14 14 14 15 15 15 15 14 14 14 13 13 13 14 14 14 14 14 14 14 14 14 14 14 14 15 15 15 15 15 15 15
14 14 14 14 14 14 14 14 14 14 14 14 14 14 14 14 15 15 15 14 14 13 13 13 13 13 13 13 13 13 14 14 14 14 14 14 14 14 14 14 14 14 15
14 14 14 14 14 14 14 14 14 14 14 14 14 14 14 14 14 14 15 14 14 13 13 13 13 13 13 13 13 13 13 13 14 14 14 14 14 14 14 14 14 14 14
14 14 14 14 14 14 14 14 14 14 14 14 14 13 13 13 13 13 14 14 14 13 13 13 13 13 13 13 13 13 13 13 13 13 13 13 13 14 14 14 14 14 14
14 14 14 14 14 14 13 14 14 14 14 14 13 13 13 13 13 13 13 13 14 14 13 13 12 12 12 12 13 13 13 13 13 13 13 13 13 13 13 13 14 14 14
14 14 14 13 13 14 13 13 13 13 13 13 13 13 13 13 13 13 13 13 13 14 14 13 12 12 12 12 12 12 12 13 13 13 13 13 13 13 13 13 13 13 13
14 14 14 13 13 13 13 13 13 13 13 13 13 13 13 13 13 13 12 12 12 13 13 12 12 12 12 12 12 12 12 12 12 12 12 12 12 12 13 13 12 13 13
13 13 13 13 13 13 13 13 13 13 13 13 13 12 12 12 12 12 12 12 12 12 12 12 11 11 11 11 11 12 11 12 11 12 12 12 12 12 12 12 12 12 12
13 13 13 13 13 13 13 13 13 13 13 12 12 12 12 12 12 12 12 12 12 12 11 11 11 11 11 11 11 11 11 11 11 11 11 12 12 12 12 12 12 12 12
13 13 13 13 13 13 13 13 13 12 12 12 12 12 12 12 12 11 11 11 11 11 11 11 11 11 11 11 11 11 11 11 10 11 11 11 11 11 11 11 11 11 11
13 13 13 13 13 13 12 12 12 12 12 12 12 12 12 11 11 11 11 11 11 11 11 11 10 10 10 10 10 10 10 10 10 10 10 10 10 10 11 11 11 11 11
13 13 13 13 13 13 12 12 12 12 12 12 12 12 12 11 11 11 11 11 10 10 10 10 10 10 10 10 10 10 10 10 10 10 10 10 10 10 10 10 10 10 10
13 13 13 13 13 13 13 12 12 12 11 11 11 11 11 11 11 11 11 11 10 10 10 10 10 10 9 9 9 9 9 9 9 9 9 9 9 9 9 9 10 10 9
13 13 12 12 12 12 12 12 12 12 11 11 11 11 11 11 11 10 10 10 10 10 10 9 9 9 9 8 8 8 8 8 8 8 8 8 8 9 9 9 9 9 9
13 13 13 12 12 12 12 12 12 11 11 11 11 10 10 10 10 10 9 9 9 9 9 9 9 8 8 8 8 8 8 8 8 8 8 8 8 8 8 8 8 8 8
13 13 13 12 12 12 12 12 11 11 11 10 10 10 10 10 10 10 9 9 9 9 9 8 8 8 8 8 7 7 7 7 7 8 7 7 7 7 7 7 7 7 7
13 13 12 12 12 11 11 11 11 10 10 10 10 10 10 10 10 9 9 8 8 8 8 8 8 7 7 7 7 7 7 7 7 7 7 6 6 6 6 7 7 6 6
Wind_Speed
4 4 4 4 4 4 3 3 4 5 5 5 5 6 5 6 6 6 7 11 10 9 9 8 9 9 8 7 7 7 5 5 5 5 4 4 4 4 5 4 3 2 2
4 4 4 4 4 4 4 4 4 4 4 5 5 6 6 6 6 6 7 8 10 10 10 10 10 10 10 9 8 8 7 6 6 4 4 4 4 4 4 4 3 3 2
5 5 4 4 4 4 4 3 4 4 4 5 5 6 6 6 6 7 7 6 7 10 11 11 11 11 11 11 10 9 8 7 6 5 5 5 5 4 5 4 4 3 2
6 5 4 4 4 4 3 3 3 4 4 4 4 5 5 5 7 7 7 7 7 7 9 11 12 13 13 12 11 10 10 9 7 6 6 6 5 5 5 4 3 3 2
6 6 5 4 5 4 3 3 3 3 4 4 4 4 5 5 5 6 7 8 8 7 7 9 11 13 13 13 13 11 10 9 8 7 6 6 6 6 5 4 4 3 2
6 5 5 5 5 4 4 3 4 4 3 3 4 4 4 4 5 6 6 7 8 8 8 7 7 9 12 14 14 13 11 10 9 8 7 6 6 5 5 4 3 3 3
6 6 5 5 5 5 4 4 3 3 3 2 2 3 4 4 5 5 5 5 7 7 8 8 8 7 7 11 14 14 13 10 10 9 8 7 6 5 4 4 3 3 3
6 5 5 5 5 4 4 5 4 2 3 2 1 0 2 3 4 5 4 5 5 6 7 8 8 8 8 8 11 14 13 11 9 8 6 6 6 6 5 4 4 4 4
6 6 6 5 5 4 4 4 3 3 3 3 4 3 2 2 2 3 5 5 5 5 5 6 8 8 8 8 8 11 11 11 9 8 7 7 6 6 6 6 5 4 4
6 6 5 5 5 5 5 4 4 3 3 3 3 4 4 3 2 2 3 5 5 6 6 6 7 8 8 8 8 11 11 10 10 9 8 8 7 6 6 6 6 6 5
5 6 5 5 5 5 5 5 5 4 4 4 3 3 3 3 3 2 2 3 4 5 5 6 6 7 8 9 8 10 10 9 9 8 8 8 7 7 7 6 6 6 6
4 5 5 5 5 5 5 5 5 6 5 5 4 4 4 3 3 3 2 2 3 3 4 5 6 6 7 8 9 11 10 9 9 8 8 8 7 7 7 7 7 7 6
3 4 4 4 5 5 5 5 5 5 6 5 5 4 5 5 4 3 3 2 2 2 3 4 5 6 7 7 8 9 9 10 10 9 9 8 8 8 8 7 7 7 7
3 3 4 4 5 5 5 5 4 5 4 5 5 5 4 4 4 4 4 3 2 2 3 4 4 6 6 6 8 7 7 9 10 9 9 8 8 8 8 8 8 8 8
3 4 4 4 4 4 4 4 4 4 4 4 5 5 4 4 4 4 4 4 4 2 3 3 3 5 6 6 7 7 7 9 9 9 9 9 8 8 8 7 8 8 8
4 4 4 4 4 4 4 4 4 4 4 4 4 4 4 4 4 4 4 4 4 4 3 3 3 5 6 5 6 6 6 6 6 7 8 8 8 8 8 8 8 8 8
4 4 4 4 4 4 4 4 4 4 3 4 4 4 4 4 3 3 3 3 4 3 3 3 3 4 5 6 6 6 6 6 6 6 7 8 8 8 8 8 8 8 8
4 4 4 4 4 3 3 3 3 3 3 3 4 4 4 3 4 4 3 4 4 4 3 4 4 4 5 6 6 6 6 6 5 5 5 6 6 7 7 8 8 8 8
4 4 4 3 3 3 3 2 3 3 3 3 3 4 4 4 4 4 4 4 4 4 3 3 4 4 4 5 6 6 6 6 6 5 4 4 5 6 7 7 8 8 8
4 4 4 3 3 3 2 2 2 3 3 3 4 4 5 5 5 5 4 4 4 4 4 3 4 4 4 6 6 6 6 6 6 6 6 6 5 5 5 6 7 8 9
4 4 4 4 3 2 2 2 2 2 2 3 4 5 6 6 8 6 5 5 5 4 4 4 4 4 5 6 6 7 7 7 6 5 7 7 7 7 6 5 6 8 9
4 4 4 4 3 3 4 3 2 2 2 2 3 3 3 4 4 4 5 6 7 6 5 5 5 5 7 7 7 8 8 8 7 6 8 8 7 7 7 7 6 7 9
5 4 4 4 4 4 4 2 1 1 1 2 2 2 2 3 3 3 2 0 2 4 5 6 6 7 8 8 9 9 9 9 9 8 8 9 7 8 8 7 5 8 9
5 4 4 4 4 4 4 3 1 1 1 1 2 2 3 3 4 5 4 4 4 4 5 5 6 7 7 8 9 9 10 10 9 6 7 9 8 9 9 8 5 7 9
5 5 4 4 4 4 4 3 3 1 1 1 2 3 3 3 5 6 5 4 4 4 2 3 6 6 7 8 9 8 8 8 9 7 6 8 9 10 10 8 7 6 8
5 5 4 4 4 3 5 3 3 1 1 0 1 1 3 4 5 6 4 5 5 6 6 6 5 6 7 5 7 7 7 8 9 8 7 8 10 10 9 8 8 10 10
Wind_Direction
69 69 69 61 53 51 58 61 65 67 66 63 58 60 62 61 62 64 68 67 57 54 51 50 49 45 43 44 40 35 46 54 58 84 101 107 104 129 132 127 116 123 153
63 61 65 57 51 48 46 51 69 71 69 65 60 61 58 60 62 64 64 73 69 58 52 51 49 47 42 42 46 43 52 60 62 71 88 98 100 110 121 117 109 105 99
61 62 61 62 55 52 54 51 66 71 77 81 75 65 62 57 64 63 59 55 72 71 58 50 48 48 46 44 47 46 46 51 57 64 81 89 95 100 103 102 93 94 93
62 59 58 57 54 53 57 63 63 75 80 77 75 68 68 62 58 54 57 57 53 59 68 59 54 49 44 42 44 47 42 44 55 73 82 80 82 92 96 93 88 88 82
62 66 52 46 53 53 55 60 64 69 76 76 82 75 64 61 57 53 55 53 56 54 60 70 63 53 46 41 43 43 43 42 55 72 79 78 76 77 83 82 77 74 68
61 62 61 52 50 55 52 58 66 69 72 79 83 81 74 73 62 51 48 55 53 53 52 55 63 65 55 46 42 40 43 46 58 68 69 70 69 71 71 74 72 64 47
61 60 56 55 48 55 49 54 64 79 70 69 106 105 97 79 68 64 50 52 59 55 55 54 51 47 58 58 45 38 39 47 55 60 62 60 57 56 61 62 60 48 33
56 58 59 63 60 62 57 52 53 57 68 35 9 105 123 118 76 65 61 54 53 57 56 54 51 47 41 47 51 42 37 41 49 54 55 54 51 45 39 35 36 32 19
58 55 57 59 58 60 59 53 51 47 55 51 27 360 359 49 92 83 62 58 55 49 53 52 46 42 39 42 41 44 36 38 42 46 48 47 43 36 31 24 14 8 5
66 59 60 61 61 61 62 55 53 52 43 53 55 32 30 26 354 99 91 69 62 53 47 43 41 39 36 42 44 41 35 33 35 38 38 34 32 30 26 18 11 2 349
67 65 62 63 65 63 61 57 54 47 51 43 46 48 47 38 9 15 70 69 71 58 50 45 39 35 33 35 34 36 30 29 30 31 28 24 21 21 16 7 357 353 344
78 72 67 67 66 64 62 59 63 60 56 54 50 46 38 31 22 27 40 59 65 63 56 48 37 32 29 29 34 32 29 29 28 28 27 21 15 12 9 5 358 350 340
90 80 76 73 70 68 67 66 68 65 62 58 52 49 46 39 27 16 19 36 51 74 61 56 39 25 22 23 29 22 36 34 30 26 21 17 11 5 0 352 347 342 339
96 91 88 80 77 74 73 71 69 65 60 58 55 51 50 44 32 23 14 360 17 66 53 41 39 25 16 14 21 6 30 38 28 25 23 20 15 9 2 354 348 343 340
108 105 98 93 86 78 72 73 69 67 58 52 51 52 47 50 35 27 17 1 352 357 31 31 18 17 10 16 13 10 20 29 20 22 19 15 14 11 7 360 358 354 348
118 115 105 100 97 91 84 77 73 62 65 63 45 43 40 42 38 30 19 14 3 350 356 13 9 3 6 3 14 6 14 16 23 21 11 6 4 2 2 1 1 359 354
133 127 115 109 103 99 93 89 76 69 59 61 55 51 45 34 30 27 17 15 10 359 347 353 358 356 357 355 358 354 354 352 16 26 10 3 1 358 358 357 356 354 352
138 131 122 116 109 104 93 84 76 67 60 57 50 44 42 40 28 19 7 7 4 350 338 335 337 348 351 349 348 343 345 346 346 16 1 357 357 355 354 350 350 352 350
143 139 133 126 118 109 104 89 78 67 62 55 43 37 34 30 24 22 5 3 356 351 338 324 334 343 337 345 342 341 341 338 330 345 340 345 345 341 339 339 342 343 344
146 142 139 135 128 119 107 96 87 74 68 59 48 41 34 27 16 10 5 1 353 346 341 331 332 336 337 341 334 336 333 332 323 332 331 320 308 298 307 322 334 337 338
148 144 142 136 127 122 92 74 87 81 75 68 59 54 48 44 31 17 7 358 352 344 342 337 335 335 340 340 337 330 327 323 321 331 323 318 316 314 313 309 327 337 337
158 154 152 142 131 111 84 45 6 92 78 71 66 61 62 57 54 53 33 13 0 351 344 340 334 334 337 337 330 323 324 321 318 332 320 314 316 312 315 318 342 340 334
162 161 154 145 140 121 117 114 354 44 67 49 35 39 35 28 357 9 25 240 19 4 336 325 327 330 330 333 326 322 321 315 311 318 317 306 310 306 309 314 325 323 321
159 164 157 154 149 134 133 143 211 193 92 63 30 11 3 4 13 348 338 342 350 351 343 327 328 328 329 329 323 316 311 306 301 302 312 302 308 308 307 301 297 305 307
161 165 158 161 163 151 141 162 223 170 145 49 32 16 357 359 17 334 320 328 330 334 343 313 316 309 310 312 313 311 314 311 311 310 318 305 308 310 301 293 291 283 287
164 166 162 168 169 162 138 161 235 211 221 234 30 29 41 7 3 335 322 324 324 330 323 313 300 292 300 306 301 308 316 313 313 310 323 314 310 313 303 296 303 305 300
Height
1566 1566 1565 1564 1564 1563 1563 1562 1562 1562 1561 1561 1560 1560 1559 1558 1557 1557 1556 1555 1554 1554 1553 1552 1552 1551 1550 1549 1548 1545 1544 1543 1542 1542 1545 1547 1549 1550 1551 1551 1552 1553 1553
1568 1567 1567 1565 1565 1564 1564 1564 1564 1563 1563 1562 1561 1560 1560 1559 1559 1558 1558 1556 1555 1555 1554 1553 1552 1552 1550 1549 1548 1546 1545 1544 1545 1546 1547 1548 1549 1550 1551 1551 1552 1553 1553
1569 1568 1568 1567 1566 1566 1566 1565 1565 1564 1563 1563 1562 1562 1561 1561 1560 1560 1559 1558 1557 1556 1555 1554 1553 1552 1551 1550 1548 1547 1546 1546 1546 1546 1547 1548 1549 1550 1551 1551 1552 1552 1553
1570 1569 1569 1568 1568 1567 1566 1566 1565 1565 1565 1564 1564 1563 1562 1562 1562 1561 1560 1559 1558 1558 1556 1555 1554 1553 1552 1551 1549 1548 1546 1546 1546 1546 1547 1549 1549 1550 1551 1552 1552 1552 1552
1571 1570 1569 1569 1569 1568 1568 1567 1566 1566 1566 1565 1565 1564 1564 1563 1563 1562 1562 1561 1560 1559 1558 1557 1556 1554 1553 1552 1550 1548 1547 1545 1545 1545 1547 1548 1550 1550 1551 1551 1552 1552 1552
1572 1571 1571 1570 1569 1569 1568 1568 1567 1567 1566 1566 1566 1565 1565 1564 1564 1563 1563 1562 1561 1560 1559 1558 1557 1556 1554 1553 1551 1549 1547 1546 1545 1546 1547 1548 1550 1550 1551 1551 1551 1552 1552
1573 1572 1572 1571 1570 1570 1569 1569 1568 1568 1567 1567 1567 1567 1566 1566 1565 1564 1564 1563 1562 1561 1560 1559 1558 1557 1556 1554 1552 1551 1549 1547 1547 1547 1548 1549 1550 1550 1551 1551 1551 1551 1551
1574 1574 1573 1572 1571 1570 1570 1569 1569 1569 1568 1568 1568 1568 1568 1568 1566 1566 1565 1564 1563 1562 1561 1560 1559 1558 1557 1556 1554 1552 1551 1550 1549 1549 1549 1549 1550 1550 1550 1550 1550 1550 1550
1575 1574 1574 1573 1573 1572 1571 1570 1570 1570 1570 1569 1568 1569 1568 1568 1568 1568 1566 1565 1564 1563 1563 1562 1560 1559 1558 1556 1555 1554 1553 1551 1551 1551 1550 1550 1550 1550 1550 1549 1549 1549 1549
1576 1575 1575 1574 1574 1573 1572 1572 1571 1571 1570 1570 1569 1569 1569 1569 1569 1568 1568 1567 1565 1564 1563 1562 1561 1560 1559 1557 1556 1555 1554 1553 1552 1551 1551 1550 1550 1549 1549 1548 1548 1548 1547
1577 1576 1576 1575 1575 1574 1573 1573 1572 1572 1571 1571 1571 1570 1570 1569 1569 1569 1568 1568 1567 1566 1564 1563 1562 1561 1560 1558 1557 1556 1555 1554 1553 1552 1551 1550 1549 1549 1548 1548 1547 1546 1546
1578 1577 1577 1576 1576 1575 1575 1574 1573 1573 1572 1572 1572 1571 1571 1570 1570 1570 1569 1568 1568 1567 1565 1564 1563 1562 1560 1559 1558 1556 1555 1554 1553 1552 1551 1550 1549 1548 1547 1546 1545 1544 1544
1579 1578 1578 1577 1577 1576 1576 1575 1575 1574 1574 1573 1573 1572 1571 1571 1570 1570 1570 1569 1568 1568 1567 1566 1564 1562 1561 1560 1558 1556 1555 1554 1553 1551 1550 1549 1548 1547 1546 1545 1544 1542 1542
1579 1579 1578 1578 1578 1577 1577 1576 1576 1576 1575 1575 1574 1573 1572 1572 1571 1571 1570 1570 1569 1569 1568 1567 1565 1563 1561 1560 1558 1556 1555 1553 1552 1551 1549 1548 1547 1546 1544 1543 1542 1540 1539
1579 1579 1579 1579 1579 1578 1578 1578 1577 1577 1576 1576 1575 1574 1574 1573 1572 1571 1571 1570 1570 1569 1568 1567 1566 1563 1562 1560 1558 1556 1555 1553 1551 1550 1548 1547 1545 1544 1542 1541 1540 1538 1537
1579 1579 1579 1579 1579 1579 1579 1578 1578 1578 1577 1576 1576 1575 1574 1574 1573 1572 1571 1570 1570 1569 1568 1567 1565 1563 1561 1559 1557 1556 1554 1552 1550 1548 1547 1545 1543 1542 1540 1539 1537 1535 1533
1579 1579 1579 1580 1580 1580 1580 1579 1579 1578 1578 1578 1577 1576 1575 1574 1573 1572 1571 1570 1569 1569 1568 1567 1565 1563 1561 1559 1557 1555 1553 1551 1549 1547 1545 1543 1541 1540 1538 1536 1535 1533 1530
1579 1579 1579 1580 1580 1580 1580 1580 1579 1579 1578 1578 1577 1576 1575 1574 1573 1572 1571 1571 1569 1568 1567 1565 1564 1562 1560 1558 1556 1554 1552 1550 1548 1545 1543 1541 1539 1537 1535 1533 1532 1530 1527
1578 1579 1579 1580 1580 1580 1580 1580 1579 1579 1578 1578 1577 1577 1576 1575 1574 1572 1571 1570 1569 1567 1566 1565 1563 1561 1559 1557 1555 1553 1551 1549 1547 1544 1542 1539 1537 1535 1533 1531 1528 1526 1524
1578 1578 1579 1579 1580 1580 1580 1580 1579 1579 1578 1578 1577 1576 1575 1574 1573 1572 1571 1570 1568 1567 1565 1564 1562 1560 1558 1556 1554 1552 1549 1547 1545 1543 1540 1537 1535 1532 1530 1527 1525 1523 1521
1577 1578 1578 1579 1579 1579 1579 1579 1579 1579 1578 1578 1577 1576 1575 1573 1572 1571 1570 1569 1567 1566 1564 1563 1561 1559 1557 1554 1552 1550 1548 1545 1543 1540 1537 1535 1533 1530 1527 1525 1522 1520 1517
1576 1577 1577 1578 1578 1578 1578 1578 1578 1578 1578 1577 1576 1575 1574 1573 1572 1570 1569 1567 1566 1564 1563 1562 1560 1558 1556 1553 1550 1548 1546 1543 1541 1538 1535 1532 1530 1527 1524 1522 1519 1516 1513
1575 1576 1577 1577 1577 1577 1577 1577 1577 1577 1577 1577 1576 1575 1574 1573 1571 1570 1568 1566 1565 1563 1561 1560 1559 1556 1554 1551 1549 1546 1543 1541 1538 1535 1532 1529 1527 1524 1521 1518 1515 1512 1509
1573 1574 1575 1576 1576 1576 1576 1576 1576 1576 1576 1575 1575 1574 1573 1572 1570 1568 1567 1566 1564 1562 1560 1558 1557 1554 1552 1549 1546 1544 1541 1538 1535 1532 1529 1526 1523 1520 1517 1514 1511 1508 1505
1572 1573 1574 1574 1575 1575 1575 1575 1575 1575 1575 1574 1573 1572 1571 1570 1568 1566 1565 1564 1562 1560 1558 1555 1553 1550 1548 1545 1543 1541 1538 1535 1532 1529 1526 1523 1520 1516 1513 1510 1507 1503 1500
1570 1571 1572 1573 1573 1574 1573 1573 1573 1574 1574 1573 1572 1570 1569 1568 1566 1565 1563 1562 1560 1558 1556 1553 1551 1548 1546 1543 1540 1538 1535 1532 1529 1526 1523 1520 1516 1513 1508 1506 1503 1500 1496